Weather in Biser

Russia / Perm Krai     58°30′43″N   58°52′37″E
temp.,
°C
wind,
m/s
gust,
m/s
humid.,
%
clouds,
%
prec.,
mm/h
press.,
hPa
HPBL,
m
5 december, sun
sun523:000sw71598100 4.8 10041045
02:000sw51198100 2.4 1004889
05:00−1wsw4895100 3.9 1006691
08:00−4wsw399499 0.3 1007448
11:00−4wsw3893100 0.6 1009774
14:00−5wsw489297 0.2 1010677
17:00−7wsw3995100 0.4 1012607
20:00−7wsw4895100 0.4 1013496
6 december, mon
mon623:00−13w4109391 0.5 1016521
02:00−18w389656 0.0 1018234
05:00−22w1110069 0.0 102116
08:00−23wnw1110020 0.0 102211
11:00−21w12976 0.0 102364
14:00−17w259041 0.0 1022220
17:00−20w259816 0.0 1024115
20:00−24w2210056 0.0 102728
7 december, tue
tue723:00−24w2210056 0.0 102838
02:00−24w22996 0.0 102938
05:00−24w2310066 0.0 103059
08:00−23wsw2810084 0.0 1031142
11:00−20w3139849 0.0 1032275
14:00−17w411876 0.0 1032266
17:00−19w312936 0.0 1034253
20:00−23wsw2310071 0.0 103643
8 december, wed
wed823:00−24wsw2110093 0.0 103728
02:00−24w2110096 0.0 103820
05:00−22wsw21100100 0.0 103817
08:00−19wsw1198100 0.0 103722
11:00−14wsw118686 0.0 103656
14:00−10s148097 0.0 1034151
17:00−9sse2794100 0.1 1032270
20:00−7s31295100 1.4 1029592
9 december, thu
thu923:00−6ssw41395100 3.2 1027552
02:00−4sw41496100 1.6 1027615
05:00−3wsw51397100 1.9 1027638
08:00−3sw51397100 0.2 1028471
11:00−3wsw41297100 0.5 1029376
14:00−2wsw41298100 0.0 1029361
17:00−3wsw31196100 0.0 1030318
20:00−5wsw2897100 0.0 1031187